Regional Weather Roundup
Issued by NWS

Home | Current Version | Previous Version | Text Only | Print | Product List | Glossary On
Versions: 1 2 3 4 5 6 7 8 9 10 11 12 13 14 15 16 17 18 19 20 21 22 23 24 25 26 27 28 29 30 31 32 33 34 35 36 37 38 39 40 41 42 43 44 45 46 47 48 49 50
000
ASUS44 KFWD 221915
RWRTX
NORTH TEXAS HOURLY WEATHER ROUNDUP
NATIONAL WEATHER SERVICE FORT WORTH TX
200 PM CDT TUE AUG 22 2017

NOTE: "FAIR" INDICATES FEW OR NO CLOUDS BELOW 12,000 FEET WITH NO
SIGNIFICANT WEATHER AND/OR OBSTRUCTIONS TO VISIBILITY.

TXZ118-119-222000-
DALLAS/FORT WORTH METROPLEX

CITY           SKY/WX    TMP DP  RH WIND       PRES   REMARKS
DFW AIRPORT    MOSUNNY   96  68  39 S6        30.02F HX 101
DALLAS LOVE    MOSUNNY   95  68  41 VRB3      30.03F HX  99
FTW MEACHAM    MOSUNNY   97  72  44 SE6       30.04F HX 105
DAL-EXECUTIVE  MOSUNNY   92  74  55 CALM      30.04F HX 101
FTW-ALLIANCE   MOSUNNY   95  68  41 W7        30.04F HX  99
FTW-NAS-JRB    MOSUNNY   94  68  42 CALM      30.04F HX  98
FTW-SPINKS     MOSUNNY   95  66  38 S7        30.06F HX  98
ARLINGTON      SUNNY     96  69  41 N3        30.04F HX 102
GRAND PRAIRIE  SUNNY     93  64  38 CALM      30.05F HX  95
ADDISON        MOSUNNY   93  66  40 W7        30.05F HX  96
MESQUITE       MOSUNNY   93  66  40 S7        30.04F HX  96
LANCASTER      SUNNY     95  68  40 SW3       30.05F HX  99
$$

TXZ091>094-102>105-117-120-121-131>134-222000-
NORTH CENTRAL TEXAS

CITY           SKY/WX    TMP DP  RH WIND       PRES   REMARKS
SHRMAN/DENISON SUNNY     91  73  54 SW3       30.05F HX  99
GAINESVILLE    SUNNY     92  69  46 W3        30.07S HX  98
BOWIE          MOSUNNY   92  70  47 NW3       30.06S HX  98
BRIDGEPORT     SUNNY     92  68  44 CALM      30.07F HX  96
DECATUR        SUNNY     92  71  50 SW5       30.07  HX  98
DENTON         SUNNY     94  72  48 S5        30.04F HX 102
MCKINNEY       MOSUNNY   93  73  52 S7        30.04F HX 102
BONHAM         SUNNY     91  72  52 CALM      30.04F HX  98
GREENVILLE     MOSUNNY   95  70  43 S3        30.06S HX 101
ROCKWALL       SUNNY     92  71  49 W7        30.05F HX  99
TERRELL        SUNNY     93  70  46 VRB3      30.05F HX  99
WAXAHACHIE     SUNNY     94  69  43 E5        30.06F HX  99
CLEBURNE       SUNNY     95  66  38 CALM      30.07F HX  98
GRANBURY       SUNNY     95  65  36 S5        30.06F HX  98
$$

TXZ083>090-098>101-113>116-127>130-139>142-154-155-222000-
WESTERN NORTH TEXAS

CITY           SKY/WX    TMP DP  RH WIND       PRES   REMARKS
WICHITA FALLS  CLOUDY    91  67  44 SW14      30.05F HX  94
WF-KICKAPOO    PTSUNNY   92  65  40 W7        30.08S HX  95
VERNON         CLOUDY    79  63  57 SW8       30.08S
ABILENE        SUNNY     91  64  40 CALM      30.10F HX  92
ABILENE-DYESS  MOSUNNY   93  66  40 S7        30.08F HX  96
GRAHAM         SUNNY     95  64  35 SE3       30.04F HX  97
BRECKENRIDGE   PTSUNNY   94  62  34 E6        30.06F HX  94
CISCO          MOSUNNY   91  68  46 CALM      30.11F HX  95
EASTLAND       MOSUNNY   92  67  42 SW3       30.08F HX  95
RANGER         SUNNY     92  64  39 CALM      30.09F HX  93
MINERAL WELLS  MOSUNNY   93  66  40 VRB6      30.04F HX  96
STEPHENVILLE   SUNNY     92  63  38 CALM      30.11F HX  93
COMANCHE       MOSUNNY   94  65  37 SE7       30.09F HX  96
BROWNWOOD      LGT RAIN  93  63  36 S8        30.09F HX  94
COLEMAN        SUNNY     93  62  34 E8        30.10F HX  94
$$

TXZ143>147-156>162-174-175-222000-
CENTRAL TEXAS

CITY           SKY/WX    TMP DP  RH WIND       PRES   REMARKS
WACO           SUNNY     96  67  38 E5        30.04F HX 100
WACO-TSTC      SUNNY     95  64  36 SW3       30.04F HX  97
WACO-MCGREGOR  SUNNY     96  67  38 CALM      30.04F HX 100
HILLSBORO      MOSUNNY   93  68  43 SW6       30.05F HX  97
CORSICANA      SUNNY     95  69  42 VRB5      30.05F HX 100
MEXIA          MOSUNNY   96  67  38 CALM      30.04F HX 100
HEARNE         SUNNY     93  69  46 SW3       30.05F HX  98
CAMERON        SUNNY     95  67  40 E5        30.05F HX  99
TEMPLE         SUNNY     96  66  37 SE8       30.05F HX  99
KILLEEN        PTSUNNY   97  70  41 E6        30.05F HX 103
KILLEEN-SKYLRK SUNNY     95  69  42 E6        30.06F HX 100
FORT HOOD      SUNNY    N/A N/A N/A NW3       30.03F
HAMILTON       SUNNY     95  62  32 CALM      30.09F HX  96
$$

TXZ095>097-106>112-122>126-135>138-148>153-164>167-222000-
EAST TEXAS

CITY           SKY/WX    TMP DP  RH WIND       PRES   REMARKS
PARIS          MOSUNNY   93  74  53 CALM      30.05F HX 103
SULPHUR SPRNGS SUNNY     91  70  50 CALM      30.07F HX  96
MOUNT PLEASANT SUNNY    N/A N/A N/A S5        30.07S
GILMER         PTSUNNY   90  71  53 CALM      30.06F HX  96
MINEOLA        MOSUNNY   91  72  52 S3        30.05F HX  98
TYLER          MOSUNNY   91  71  51 SW5       30.06F HX  97
LONGVIEW       MOSUNNY   92  74  55 NW5       30.05F HX 101
MARSHALL         N/A     90  72  54 E3        30.07F HX  96
ATHENS         SUNNY     90  68  48 SE5       30.04F HX  93
PALESTINE      MOSUNNY   94  69  44 CALM      30.06F HX  99
JACKSONVILLE   PTSUNNY   91  71  52 CALM      30.09F HX  97
HENDERSON      PTSUNNY   92  72  51 CALM      30.07F HX  99
CENTER         PTCLDY    93  73  52 CALM      30.07F HX 102
NACOGDOCHES    PTSUNNY   91  72  53 VRB3      30.06F HAZE    HX  98
LUFKIN         SUNNY     93  69  45 W6        30.05F HX  98
$$

SUPPLEMENTAL OBSERVATIONS (NWS FORT WORTH AREA)

CITY           SKY/WX    TMP DP  RH WIND       PRES   REMARKS
DENISON DAM      N/A     90  70  51 W8          N/A  HX  95
CADDO GRASSLND   N/A     95  72  46 SW3         N/A  HX 103
PAT MAYSE LAKE   N/A     91  73  55 S3          N/A  HX 100
GREENVILLE       N/A     93  70  46 S3          N/A  HX  99
CEDAR HILL       N/A     97  66  36 N3          N/A  HX 100
LBJ GRASSLAND    N/A     95  72  46 S3          N/A  HX 103
POSSUM KINGDOM   N/A     95  66  38 E6          N/A  HX  98
GRANBURY         N/A     97  66  36 S6          N/A  HX 100
COMANCHE         N/A     93  64  38 S3          N/A  HX  95
MCGREGOR         N/A     97  64  34 E3          N/A  HX  99
TEMPLE           N/A     97  66  36 SE7         N/A  HX 100
LAKE LIMESTONE   N/A     99  66  34 E6          N/A  HX 102
ATHENS           N/A     93  70  46 SE6         N/A  HX  99
$$

SUPPLEMENTAL OBSERVATIONS (NWS NORMAN AREA)

CITY           SKY/WX    TMP DP  RH WIND       PRES   REMARKS
GOODLETT         N/A     94  64  37 W1        30.06F HX  96
ODELL            N/A     83  62  48 S35G40    30.07F
CROWELL          N/A     89  73  59 NE12      30.09S HX  96
KNOX CITY        N/A     94  60  32 NW5       30.07F HX  94
SEYMOUR          N/A     94  64  36 NW5       30.07F HX  96
MILLERS CREEK    N/A     95  64  36 NE3G13      N/A  HX  97
$$

SUPPLEMENTAL OBSERVATIONS (NWS SAN ANGELO AREA)

CITY           SKY/WX    TMP DP  RH WIND       PRES   REMARKS
WEINERT          N/A     97  65  34 S3        30.08F HX 100
HASKELL          N/A     93  65  40 NW2       30.08F HX  95
THROCKMORTON     N/A     94  66  39 SW1       30.08F HX  97
STAMFORD         N/A     96  66  37 E6        30.08F HX  98
CLYDE            N/A     93  65  40 SE8       30.12F HX  95
HAMBY            N/A     97  64  34 S7          N/A  HX  99
IVIE RESERVOIR   N/A     91  66  43 W6          N/A  HX  94
COLORADO BEND    N/A    N/A N/A N/A E7G15       N/A
$$

SUPPLEMENTAL OBSERVATIONS (NWS SHREVEPORT AREA)

CITY           SKY/WX    TMP DP  RH WIND       PRES   REMARKS
CLARKSVILLE      N/A     95  72  46 S3          N/A  HX 103
TEXARKANA        N/A     91  75  59 S3          N/A  HX 102
LINDEN           N/A     93  72  49 E2          N/A  HX 100
CADDO LAKE       N/A     95  72  46 SE2         N/A  HX 103
GILMER           N/A     93  72  49 N2          N/A  HX 100
HENDERSON        N/A     93  72  49 SW2         N/A  HX 100
N SABINE NF      N/A     93  77  59 MISG        N/A  HX 107
S SABINE NF      N/A     90  72  55 NE6         N/A  HX  96
$$

SUPPLEMENTAL OBSERVATIONS ARE A COLLECTION OF AUTOMATED INSTRUMENTS
THAT ARE MAINTAINED BY A VARIETY OF FEDERAL AND STATE AGENCIES.
CERTAIN ELEMENTS...SUCH AS HUMIDITY VALUES AND SUSTAINED WIND
SPEEDS...MAY BE APPROXIMATED.




USA.gov is the U.S. government's official web portal to all federal, state and local government web resources and services.